Regional Weather Roundup
Issued by NWS

Home | Current Version | Previous Version | Text Only | Print | Product List | Glossary On
Versions: 1 2 3 4 5 6 7 8 9 10 11 12 13 14 15 16 17 18 19 20 21 22 23 24 25 26 27 28 29 30 31 32 33 34 35 36 37 38 39 40 41 42 43 44 45 46 47 48 49 50
000
ASUS43 KFSD 230202
RWRSD

WEATHER ROUNDUP FOR SOUTH DAKOTA
NATIONAL WEATHER SERVICE SIOUX FALLS SD
900 PM CDT WED OCT 22 2014

NOTE: "FAIR" INDICATES FEW OR NO CLOUDS BELOW 12,000 FEET WITH NO
SIGNIFICANT WEATHER AND/OR OBSTRUCTIONS TO VISIBILITY.


SDZ001>005-009-010-012>017-230300-
NORTHWEST AND NORTH CENTRAL SOUTH DAKOTA

CITY           SKY/WX    TMP DP  RH WIND       PRES   REMARKS
FAITH            N/A     51  30  44 W7        29.98S
MOBRIDGE       CLEAR     53  38  56 W6        29.92R
$$

SDZ012>016-024>037-041>051-057-063-072>074-230300-
SOUTHWEST AND SOUTH CENTRAL SOUTH DAKOTA

CITY           SKY/WX    TMP DP  RH WIND       PRES   REMARKS
RAPID CTY ARPT CLEAR     44  31  60 W5        30.02S
PIERRE         CLEAR     53  39  59 SW7       29.97R
CUSTER         CLEAR     40  24  53 W3        30.07S
ELLSWORTH AFB  CLEAR     46  32  57 NW3       30.02R
PHILIP         CLEAR     48  32  53 W5        30.00R
PINE RIDGE     CLEAR     42  32  67 NE3       30.04R
SPEARFISH      FAIR      41  30  65 CALM      30.03S
WINNER         FAIR      55  40  56 SW6       30.02R
$$

SDZ004>011-016>023-039-040-230300-
NORTHEAST SOUTH DAKOTA

CITY           SKY/WX    TMP DP  RH WIND       PRES   REMARKS
ABERDEEN       PTCLDY    50  48  93 S8        29.94S
WATERTOWN      CLOUDY    54  52  93 W9        29.96S
SISSETON         N/A     56  53  90 W10       29.92S
$$

SDZ017-020-022-023-036>040-048>070-230300-
SOUTHEAST SOUTH DAKOTA

CITY           SKY/WX    TMP DP  RH WIND       PRES   REMARKS
SIOUX FALLS    CLOUDY    56  55  97 VRB5      30.01R
HURON          PTCLDY    52  50  93 SW7       29.98S
CHAMBERLAIN    CLEAR     45  43  95 CALM      30.00S
MITCHELL       PTCLDY    53  52  96 SW6       30.01R
YANKTON        CLOUDY    54  52  94 SW5       30.03R
$$

ABBREVIATIONS USED IN REMARKS
   TC - TEMPERATURE IN CELSIUS
  WCI - WIND CHILL INDEX
   HX - HEAT INDEX
  VSB - VISIBILITY




USA.gov is the U.S. government's official web portal to all federal, state and local government web resources and services.